Danville, VA

11:18 PM EST on February 27, 2017 (GMT -0500)
Danville Regional

Weather History for KDAN - April, 2013

Change the Weather History Date:

Tuesday, April 2, 2013

  Actual Average Record
Temperature  
Mean Temperature 47 °F 54 °F  
Max Temperature 59 °F 65 °F 91 °F (2010)
Min Temperature 34 °F 43 °F 27 °F (1964)
Degree Days  
Heating Degree Days 18 11  
Month to date heating degree days 24 23  
Since 1 July heating degree days 3479 3534  
Cooling Degree Days 0 1  
Month to date cooling degree days 0 1  
Year to date cooling degree days 2 4  
Moisture  
Dew Point 21 °F    
Average Humidity 45    
Maximum Humidity 70    
Minimum Humidity 19    
Precipitation  
Precipitation 0.00 in 0.14 in 1.12 in (1999)
Month to date precipitation 0.01 0.27  
Year to date precipitation 12.37 10.81  
Snow  
Snow 0.00 in - - ()
Month to date snowfall 0.0  
Since 1 July snowfall 1.7  
Snow Depth 0.00 in    
Sea Level Pressure  
Sea Level Pressure 30.09 in    
Wind  
Wind Speed 6 mph (NNW)    
Max Wind Speed 17 mph    
Max Gust Speed 23 mph    
Visibility 10 miles    
Events      
T = Trace of Precipitation, MM = Missing Value Source: NWS Daily Summary

Daily Weather History Graph

Daily Weather History Graph

Search for Another Location

Airport or City:

Trip Planner

Search our weather history database for the weather conditions in past years. The results will help you decide how hot, cold, wet, or windy it might be!

Date:

Astronomy

Apr. 02, 2013 Rise Set
Actual Time 7:01 AM EDT 7:40 PM EDT
Civil Twilight 6:35 AM EDT 8:06 PM EDT
Nautical Twilight 6:04 AM EDT 8:37 PM EDT
Astronomical Twilight 5:33 AM EDT 9:09 PM EDT
Moon 1:37 AM EDT (4/2) 11:57 AM EDT (4/2)
Length of Visible Light 13h 31m
Length of Day
12h 39m
Waning Gibbous, 56% of the Moon is Illuminated
Apr 2
Waning Gibbous
Apr 3
Last Quarter
Apr 10
New
Apr 18
First Quarter
Apr 25
Full

Hourly Weather History & Observations

Time (EDT) Temp. Windchill Dew Point Humidity Pressure Visibility Wind Dir Wind Speed Gust Speed Precip Events Conditions
12:53 AM 46.0 °F 41.9 °F 27.0 °F 47% 30.01 in 10.0 mi North 8.1 mph - N/A   Mostly Cloudy
1:53 AM 43.0 °F 41.3 °F 27.0 °F 53% 30.02 in 10.0 mi North 3.5 mph - N/A   Partly Cloudy
2:53 AM 37.9 °F - 27.0 °F 65% 30.03 in 10.0 mi Calm Calm - N/A   Clear
3:53 AM 39.9 °F 36.7 °F 27.0 °F 60% 30.03 in 10.0 mi NNW 4.6 mph - N/A   Clear
4:53 AM 39.0 °F 34.0 °F 27.0 °F 62% 30.04 in 10.0 mi NNW 6.9 mph - N/A   Clear
5:53 AM 36.0 °F 32.1 °F 26.1 °F 67% 30.07 in 10.0 mi NNW 4.6 mph - N/A   Clear
6:53 AM 37.0 °F 33.3 °F 26.1 °F 65% 30.10 in 10.0 mi NNW 4.6 mph - N/A   Clear
7:53 AM 39.9 °F 35.1 °F 27.0 °F 60% 30.14 in 10.0 mi NNW 6.9 mph - N/A   Clear
8:53 AM 44.1 °F 38.6 °F 25.0 °F 47% 30.15 in 10.0 mi NNW 10.4 mph - N/A   Clear
9:53 AM 48.0 °F - 23.0 °F 37% 30.14 in 10.0 mi WNW 6.9 mph - N/A   Clear
10:53 AM 50.0 °F - 21.0 °F 32% 30.15 in 10.0 mi West 12.7 mph 23.0 mph N/A   Clear
11:53 AM 51.1 °F - 19.9 °F 29% 30.15 in 10.0 mi NW 10.4 mph 18.4 mph N/A   Clear
12:53 PM 53.1 °F - 19.0 °F 26% 30.13 in 10.0 mi West 8.1 mph 19.6 mph N/A   Clear
1:53 PM 55.0 °F - 18.0 °F 23% 30.10 in 10.0 mi NW 8.1 mph 18.4 mph N/A   Clear
2:53 PM 55.9 °F - 19.9 °F 25% 30.08 in 10.0 mi West 8.1 mph 18.4 mph N/A   Clear
3:53 PM 57.0 °F - 19.0 °F 23% 30.05 in 10.0 mi NNW 8.1 mph 16.1 mph N/A   Clear
4:53 PM 57.9 °F - 18.0 °F 21% 30.04 in 10.0 mi West 8.1 mph - N/A   Clear
5:53 PM 57.9 °F - 16.0 °F 19% 30.05 in 10.0 mi NW 8.1 mph - N/A   Clear
6:53 PM 55.0 °F - 16.0 °F 22% 30.06 in 10.0 mi NW 4.6 mph - N/A   Clear
7:53 PM 52.0 °F - 18.0 °F 26% 30.07 in 10.0 mi North 5.8 mph - N/A   Clear
8:53 PM 51.1 °F - 17.1 °F 26% 30.09 in 10.0 mi NNE 4.6 mph - N/A   Clear
9:53 PM 50.0 °F - 17.1 °F 27% 30.11 in 10.0 mi NNE 5.8 mph - N/A   Clear
10:53 PM 46.9 °F - 18.0 °F 32% 30.13 in 10.0 mi NE 5.8 mph - N/A   Clear
11:53 PM 45.0 °F 41.8 °F 15.1 °F 30% 30.15 in 10.0 mi NNE 5.8 mph - N/A   Clear